Weather in Sigulda

Latvia     57°09′23″N   24°51′02″E
temp.,
°C
wind,
m/s
gust,
m/s
humid.,
%
clouds,
%
prec.,
mm/h
press.,
hPa
HPBL,
m
5 march, fri
fri523:00−2nw497926 0.0 1011835
02:00−3nw497650 0.1 1012939
05:00−3nnw5869100 0.1 10121107
08:00−4nnw495156 0.1 10141133
11:00−1nnw473611 0.0 10161558
14:00−1wnw456037 0.0 10161091
17:00−2wnw246958 0.1 1017551
20:00−4nnw267854 0.1 1019261
6 march, sat
sat623:00−4nnw26560 0.0 1020237
02:00−4wnw24730 0.0 1022122
05:00−5w24800 0.0 1021120
08:00−4wsw387523 0.0 1021440
11:00−1wsw595485 0.0 1019904
14:00+2wsw7134983 0.0 10161592
17:00+2wsw71550100 0.0 10121376
20:00+1wsw71569100 0.0 10081189
7 march, sun
sun723:00+1wsw71486100 0.1 1003978
02:00−2nw51295100 3.5 1001801
05:00−4nw91651100 1.8 10012251
08:00−3wnw6165080 1.8 10022324
11:00−2wnw101868100 0.6 9992165
14:00−2wnw9165999 0.8 9991901
17:00−3nw91680100 0.6 10011616
20:00−6nw396677 0.7 1005821
8 march, mon
mon823:00−7nw266346 0.0 1007197
02:00−6nw396953 0.0 1009413
05:00−7nnw39853 0.0 1010507
08:00−7n477926 0.0 1012775
11:00−6n466894 0.0 1015869
14:00−4n4752100 0.0 10161302
17:00−5n465196 0.0 10171268
20:00−7n386056 0.0 1020681
9 march, tue
tue923:00−8nnw25630 0.0 1021241
02:00−8wsw226531 0.0 102135
05:00−5wsw3107793 0.0 1020488
08:00−3wsw5117497 0.0 1019844
11:00−1w7125791 0.0 10181335
14:00+1w7115981 0.1 10181649
17:000w51167100 0.2 10171585
20:00−2wsw51085100 0.4 1017856